This is the latest recevied weather packets stored in our database for station/object KC4GS-13. If no packets are shown the sender has not sent any weather packets the latest 10 day(s).
| Time | Temp. | Humidity | Pressure | Rain* | Wind** | Luminosity | Snow |
|---|---|---|---|---|---|---|---|
| 1778095362 | 31.67° C | 42% | 1014.9 hPa | 0 mm | - | 732 W/m² | - |
| 1778095059 | 31.67° C | 42% | 1014.8 hPa | 0 mm | - | 714 W/m² | - |
| 1778094755 | 31.67° C | 41% | 1015 hPa | 0 mm | - | 719 W/m² | - |
| 1778094452 | 31.67° C | 41% | 1015 hPa | 0 mm | - | 656 W/m² | - |
| 1778094149 | 31.11° C | 44% | 1015 hPa | 0 mm | - | 653 W/m² | - |
| 1778093846 | 31.11° C | 43% | 1015.2 hPa | 0 mm | - | 709 W/m² | - |
| 1778093542 | 31.11° C | 44% | 1015.1 hPa | 0 mm | - | 698 W/m² | - |
| 1778093240 | 31.11° C | 45% | 1015.1 hPa | 0 mm | - | 639 W/m² | - |
| 1778092937 | 31.11° C | 47% | 1015.1 hPa | 0 mm | - | 729 W/m² | - |
| 1778092634 | 30.56° C | 48% | 1015.3 hPa | 0 mm | - | 776 W/m² | - |
| 1778092329 | 31.11° C | 50% | 1015.1 hPa | 0 mm | - | 760 W/m² | - |
| 1778092027 | 30.56° C | 49% | 1015.1 hPa | 0 mm | - | 703 W/m² | - |
| 1778091724 | 30° C | 49% | 1015.1 hPa | 0 mm | - | 706 W/m² | - |
| 1778091422 | 30° C | 52% | 1015.1 hPa | 0 mm | - | 664 W/m² | - |
| 1778091119 | 30° C | 52% | 1015.1 hPa | 0 mm | - | 686 W/m² | - |
| 1778090816 | 30° C | 54% | 1015.4 hPa | 0 mm | - | 745 W/m² | - |
| 1778090511 | 29.44° C | 53% | 1015.6 hPa | 0 mm | - | 751 W/m² | - |
| 1778090208 | 29.44° C | 54% | 1015.8 hPa | 0 mm | - | 769 W/m² | - |
| 1778089905 | 28.89° C | 54% | 1015.8 hPa | 0 mm | - | 791 W/m² | - |
| 1778089598 | 28.33° C | 56% | 1015.7 hPa | 0 mm | - | 792 W/m² | - |
| 1778089294 | 27.22° C | 59% | 1015.9 hPa | 0 mm | - | 792 W/m² | - |
| 1778088992 | 26.67° C | 58% | 1016 hPa | 0 mm | - | 235 W/m² | - |
| 1778088689 | 26.67° C | 57% | 1016.2 hPa | 0 mm | - | 214 W/m² | - |
| 1778088386 | 27.78° C | 56% | 1016.2 hPa | 0 mm | - | 240 W/m² | - |
| 1778088082 | 28.33° C | 54% | 1016.2 hPa | 0 mm | - | 652 W/m² | - |
* Rain latest hour (hover to see other rain measurements)
** Current wind speed in m/s (hover to see current wind gust speed)